Location: Celina Division
(33.3022°N, 96.7580°W)
Time: 21:47:01
(UTC+00:00)

Cosmos 1092 Rocket - Pass Details

Date: 09 July 2022
Orbit: 955 x 994 km, 83.0° (Epoch: 08 August)

Event Time Altitude Azimuth Distance (km) Brightness Sun altitude
Rises 10:32:53 0° 147° (SSE) 3,627 7.0 -10.2°
Reaches altitude 10° 10:35:58 10° 132° (SE) 2,681 6.5 -9.6°
Maximum altitude 10:40:24 21° 85° (E) 1,987 6.5 -8.9°
Drops below altitude 10° 10:44:51 10° 38° (NE) 2,686 7.7 -8.1°
Sets 10:47:55 0° 24° (NNE) 3,637 8.1 -7.6°
